Theta_e
326 325 327 326 326 325 325 325 326 326 326 326 326 324 324 324 325 325 325 325 324 325 324 324 326 327 327 327 327 327 327 328 327 327 328 328 328 327 325 324 325 326 326
326 326 328 325 326 327 325 326 325 325 325 326 326 325 325 324 324 324 324 324 324 322 321 325 327 327 328 327 328 328 328 328 328 327 328 327 327 327 325 325 327 326 327
325 325 327 326 326 327 326 326 326 326 325 325 325 325 325 325 324 324 325 323 322 323 325 326 326 327 328 328 328 327 328 328 328 327 327 326 326 326 325 327 327 328 327
324 324 326 327 325 325 327 327 327 327 325 323 324 325 325 325 324 324 324 323 323 326 325 326 327 327 328 327 327 327 328 327 327 327 327 326 326 325 327 326 326 325 327
323 324 325 327 326 327 325 325 324 326 327 325 324 324 325 325 325 325 327 327 326 325 325 325 326 327 327 327 327 328 328 327 327 328 326 326 326 328 326 325 325 327 320
322 323 324 326 326 325 326 325 325 326 327 327 327 325 326 326 327 325 325 325 326 326 326 326 327 326 327 327 326 327 327 327 327 328 326 326 326 326 326 326 326 325 313
322 323 321 325 327 327 326 324 324 323 327 327 326 326 326 325 326 327 326 325 324 327 327 327 327 327 327 326 326 327 326 327 327 327 326 327 326 326 325 324 325 314 318
323 322 320 326 327 329 326 323 321 319 325 323 327 327 328 326 326 327 326 325 325 327 326 326 326 326 325 325 326 325 324 325 324 324 326 326 323 317 316 315 315 319 321
323 321 320 323 326 327 328 324 323 318 321 325 328 327 327 327 324 327 326 324 326 325 324 325 325 324 323 325 322 324 323 321 320 320 319 319 318 320 321 320 321 321 322
323 320 319 318 325 326 326 325 323 318 318 319 326 328 327 327 324 326 326 325 325 324 323 324 324 323 323 323 321 321 322 322 321 321 322 323 323 322 322 321 320 316 316
323 321 319 318 321 326 326 324 323 321 315 317 318 322 328 328 327 326 325 324 325 325 324 324 325 325 323 323 322 323 324 324 323 323 323 323 318 312 313 315 317 317 317
323 322 319 318 319 325 326 326 324 323 319 314 317 318 321 326 328 328 326 325 324 324 326 326 326 324 323 322 323 323 323 322 321 320 317 313 313 314 316 317 318 318 319
323 323 320 318 318 322 325 327 326 325 323 314 314 316 317 320 327 328 326 325 325 326 326 326 326 323 321 320 320 320 319 318 318 315 313 313 314 314 315 318 319 320 320
322 323 321 319 319 317 320 322 326 326 324 321 313 313 314 316 318 322 326 326 326 327 327 327 323 319 318 317 317 316 315 314 313 313 314 313 312 314 317 319 320 319 318
322 323 322 319 320 317 317 318 322 322 319 318 317 315 312 313 314 315 317 318 319 320 322 323 319 317 317 316 316 315 315 315 316 316 315 312 312 315 318 320 320 319 314
323 322 322 319 320 319 318 317 318 318 318 319 317 315 318 316 313 313 315 317 316 317 317 317 317 317 316 314 314 315 315 316 316 314 312 311 312 315 318 320 319 315 308
323 322 322 320 320 320 320 319 318 318 319 319 319 317 316 320 320 319 313 313 317 318 317 315 314 314 313 313 313 314 315 315 315 312 311 311 313 316 318 319 317 311 305
324 323 321 321 319 320 321 320 319 319 317 316 317 317 316 319 322 321 319 314 312 313 315 314 313 312 312 312 312 312 313 314 314 312 311 312 314 316 318 318 314 309 302
325 324 323 321 319 319 320 321 321 320 319 318 315 314 315 316 319 320 321 318 312 309 310 312 311 311 311 311 312 312 311 312 312 312 311 311 315 317 317 316 311 306 298
326 325 324 322 321 319 319 320 321 321 321 320 319 318 315 313 314 315 315 315 313 310 308 309 311 310 312 312 312 311 311 311 311 312 311 312 316 317 317 314 308 301 295
327 326 324 324 323 321 320 320 320 321 321 321 320 320 319 317 312 310 312 312 311 311 311 309 308 309 311 312 314 314 314 314 315 313 312 314 317 316 315 309 304 297 296
327 327 325 324 324 323 322 321 321 321 322 322 322 321 320 320 319 314 310 311 310 311 312 314 315 315 312 309 310 314 316 316 318 315 314 316 317 316 312 305 302 296 296
329 328 326 325 325 324 324 323 323 322 322 323 323 322 322 321 321 320 317 313 311 311 312 315 317 318 318 319 317 311 309 312 315 317 316 316 318 316 310 305 298 296 301
330 330 329 328 327 326 325 324 324 324 323 323 323 324 323 323 322 322 322 322 318 315 314 313 314 316 317 318 319 320 319 316 310 311 316 316 315 314 308 302 298 301 302
330 330 330 330 329 329 329 328 328 327 325 325 325 325 326 325 324 324 324 324 324 323 323 321 320 319 318 317 316 317 317 318 318 311 311 313 315 315 307 300 299 300 299
330 331 331 331 330 330 331 330 330 330 329 329 328 328 328 328 327 326 325 324 324 324 324 324 324 323 322 321 320 319 317 317 317 314 311 313 314 311 306 300 300 300 298
Wind_Speed
5 3 2 5 7 6 4 6 7 5 6 7 10 11 11 11 12 12 12 12 11 10 9 6 8 7 12 13 7 11 10 14 16 23 20 27 26 33 28 26 22 18 14
6 5 3 5 6 5 5 5 6 7 8 8 9 10 11 11 11 10 10 10 11 11 9 9 9 10 13 11 8 10 11 11 16 24 20 26 28 33 32 24 20 17 11
7 6 5 6 8 9 9 7 7 7 8 8 9 10 11 11 11 9 7 10 11 8 7 8 12 11 11 12 9 9 10 10 15 21 26 28 29 33 29 24 18 13 7
9 8 7 7 8 10 11 10 7 7 8 9 9 10 11 11 10 9 9 11 9 8 7 8 9 10 12 13 12 10 9 13 17 18 27 30 28 33 27 21 13 8 6
10 9 9 7 8 7 9 11 11 9 9 9 10 13 12 10 10 10 11 12 11 8 9 10 9 9 10 10 10 13 14 14 28 28 35 31 29 29 22 16 12 8 10
12 11 10 10 9 8 8 9 8 9 9 11 10 9 12 11 9 11 15 12 9 8 13 15 14 12 13 15 12 11 19 21 23 24 25 24 32 26 19 16 14 13 11
16 13 11 12 11 9 8 8 8 7 9 10 5 7 11 11 11 11 14 9 7 12 18 20 21 19 18 19 19 28 21 18 17 18 20 20 21 19 16 15 15 12 12
20 16 12 15 14 11 10 9 8 8 10 9 8 7 9 17 13 16 16 12 10 15 13 19 23 25 22 22 25 22 17 13 14 15 15 17 16 17 14 14 14 13 10
23 19 15 17 16 13 11 9 8 8 10 10 10 11 10 20 16 17 18 17 16 18 22 21 21 22 23 17 21 13 17 20 23 22 21 18 18 17 15 13 10 8 6
24 22 18 16 17 15 13 11 10 9 10 11 11 11 13 15 18 17 21 19 18 21 21 17 17 21 18 14 17 17 17 17 19 20 17 16 14 13 10 9 7 5 5
21 23 20 17 18 16 15 13 11 9 10 11 11 12 12 12 15 14 20 22 18 18 16 21 17 13 13 15 17 14 15 16 15 14 14 12 10 9 8 7 6 5 3
23 24 22 19 19 20 17 15 13 10 9 11 11 11 12 12 12 12 16 18 20 21 24 19 15 13 14 14 14 14 11 9 8 8 8 8 7 6 5 4 4 2 2
26 25 23 21 18 21 20 19 17 14 11 12 13 13 13 13 14 14 16 19 20 16 17 16 14 14 13 14 14 12 11 10 9 8 8 6 5 4 5 6 3 4 7
29 28 26 24 21 22 21 20 20 18 15 13 15 15 15 15 16 17 19 21 20 17 17 19 18 16 15 14 14 14 13 11 8 8 7 7 8 8 7 7 6 6 5
31 30 29 28 25 21 22 21 21 19 16 15 16 15 17 18 17 17 17 19 19 18 19 20 20 19 18 17 16 16 14 14 13 13 11 10 10 10 11 10 9 8 6
33 33 32 31 29 26 22 20 19 18 17 15 12 15 14 11 14 16 17 17 18 18 20 22 22 21 20 19 19 19 18 17 15 13 12 13 14 14 15 14 11 9 9
33 33 33 31 32 31 29 25 22 18 18 18 17 16 17 14 15 14 17 20 19 20 22 23 23 23 22 21 22 22 20 18 17 16 16 16 17 17 18 16 14 14 13
35 32 33 33 33 32 30 29 25 22 21 21 22 21 21 21 18 18 18 22 27 28 27 26 26 25 24 24 25 24 23 21 21 20 20 20 20 21 21 21 19 17 16
37 36 34 33 33 32 29 28 28 27 25 22 21 24 26 26 25 25 25 26 28 30 30 28 27 26 26 26 27 26 26 26 25 24 24 24 25 25 25 24 21 19 18
37 36 35 35 34 33 32 30 29 30 29 27 25 23 24 28 32 33 33 32 32 31 31 32 30 29 29 29 29 30 30 29 28 28 27 26 27 28 28 27 24 24 21
38 38 37 36 35 34 33 33 31 31 30 30 28 25 23 25 28 33 36 36 36 35 32 31 31 32 31 31 31 32 32 31 30 30 29 27 27 31 31 27 23 24 21
36 37 39 39 37 36 35 34 32 31 30 30 29 28 27 27 27 28 32 36 37 36 34 32 32 31 31 33 34 35 35 35 32 29 26 26 29 34 33 30 25 26 16
33 34 36 37 37 37 36 36 35 34 33 30 29 29 31 30 29 27 28 29 32 36 37 36 34 32 31 31 32 35 38 39 36 34 36 35 30 35 36 32 30 26 18
33 31 32 33 34 35 35 35 34 35 35 33 30 30 30 30 29 28 25 24 25 28 31 34 37 37 35 33 33 34 35 36 38 41 43 40 34 32 38 35 36 27 21
30 30 31 31 31 30 30 29 27 30 32 33 31 29 28 28 29 29 27 26 25 26 26 27 29 30 32 32 34 36 36 39 41 41 42 36 31 35 38 37 32 24 25
31 29 30 30 30 29 27 27 24 22 25 27 28 27 28 28 27 26 26 26 26 26 27 28 28 29 29 32 34 35 36 38 38 39 33 29 31 37 40 38 29 31 29
Wind_Direction
167 150 92 58 41 33 93 84 96 103 115 126 157 169 170 158 156 165 171 169 178 182 171 163 154 177 176 186 179 194 194 189 172 166 171 172 161 170 156 147 146 153 159
173 170 123 85 46 55 107 104 95 97 114 126 130 154 167 166 166 168 176 173 172 168 167 160 153 174 188 204 201 191 196 186 181 172 179 173 166 172 160 149 150 153 157
179 175 149 115 76 80 101 103 97 99 110 122 132 140 156 161 167 170 168 158 149 158 170 174 167 193 178 183 183 179 181 178 173 151 163 167 167 160 154 153 152 147 113
177 168 163 141 117 90 94 99 87 93 117 120 121 131 139 150 155 151 148 154 160 147 146 148 167 175 169 171 166 165 176 171 179 165 160 163 158 161 163 164 155 143 134
179 171 166 160 149 123 106 100 80 93 112 120 121 125 131 138 148 149 150 146 151 166 179 165 156 158 155 155 171 177 177 170 177 148 165 174 177 159 171 164 165 159 142
186 174 174 168 163 148 121 109 96 94 128 118 123 134 139 145 145 146 142 134 129 119 134 139 139 143 147 146 143 180 147 135 134 151 149 146 162 171 175 176 174 159 135
194 184 179 171 166 157 134 118 110 95 119 133 113 138 170 157 159 152 163 146 113 121 135 144 144 147 158 164 134 129 132 129 121 131 142 155 165 166 166 168 162 157 149
196 192 181 175 172 165 148 129 106 98 114 132 101 107 146 167 147 159 150 142 129 129 136 139 137 131 126 127 135 126 124 126 129 132 137 136 141 145 144 145 157 163 159
197 196 187 184 181 174 165 144 120 110 108 108 107 84 116 151 155 161 156 147 139 132 135 131 130 136 130 133 129 128 129 130 129 129 131 133 140 145 147 152 165 175 175
198 197 194 190 191 183 169 160 140 124 121 108 107 117 104 133 159 153 161 157 155 144 151 144 133 127 132 134 135 134 137 137 139 139 141 143 146 152 155 160 169 169 178
195 198 197 197 194 190 178 170 161 145 145 133 121 117 128 126 132 148 185 194 184 165 166 155 146 138 135 129 137 135 141 133 135 146 147 146 149 146 141 142 150 158 186
197 200 199 198 197 195 192 183 182 172 160 162 151 138 129 132 144 143 139 159 174 171 165 158 155 152 151 150 147 149 154 154 151 158 159 152 147 145 155 178 180 186 267
199 201 198 197 200 201 200 198 195 192 187 178 173 165 151 143 141 145 150 155 163 165 180 184 177 170 171 174 175 178 180 184 189 182 173 174 184 209 209 198 201 281 301
201 201 199 197 198 202 205 206 205 202 198 195 185 181 175 168 165 158 156 165 173 178 182 184 185 186 185 186 192 189 186 188 188 191 198 215 224 214 209 232 256 273 280
203 202 201 199 199 199 205 210 211 213 211 206 201 194 192 189 182 180 179 176 179 185 189 192 195 196 198 200 200 199 196 198 202 211 224 234 232 230 226 234 257 272 251
204 204 203 202 201 202 200 203 212 218 221 221 220 218 210 201 198 199 195 196 201 201 201 205 208 211 213 213 211 208 210 213 220 230 242 251 254 246 241 237 247 241 231
208 205 204 205 204 205 207 208 208 209 216 221 221 218 219 217 207 207 211 214 214 216 220 221 222 223 222 221 221 222 224 227 233 242 249 252 252 244 234 234 235 228 214
210 211 207 206 207 208 210 214 216 214 212 215 214 216 214 215 213 213 217 217 219 222 223 226 227 228 227 227 225 226 230 235 243 251 254 253 248 242 237 233 231 224 214
210 213 213 212 210 210 210 215 221 223 222 223 220 219 216 216 217 218 221 227 226 226 226 229 230 231 233 234 233 234 237 241 246 252 256 255 248 243 237 234 228 215 207
212 215 216 215 214 214 215 216 221 226 229 229 228 230 227 225 223 223 225 226 226 227 228 231 232 233 233 234 236 239 241 244 248 252 254 254 246 241 236 233 219 209 200
211 215 217 219 219 220 220 220 221 226 230 232 234 236 237 239 238 234 233 232 232 233 233 233 235 237 240 242 242 241 244 247 250 252 253 251 248 237 231 223 209 207 191
214 217 218 220 222 224 226 228 229 230 233 236 237 237 238 240 243 243 243 242 241 241 244 245 247 248 247 247 247 246 246 247 249 254 258 253 258 237 227 211 196 191 197
216 220 221 223 226 228 229 233 235 237 239 240 240 240 240 241 245 248 247 245 245 246 247 250 252 252 252 253 254 256 254 255 255 254 258 247 251 237 220 207 191 190 191
215 218 222 224 229 231 232 234 238 241 242 243 243 243 244 245 246 249 253 255 253 252 251 251 252 255 258 259 260 259 260 259 257 255 253 245 241 231 216 199 191 189 197
214 218 221 224 229 232 234 235 235 239 241 244 246 246 247 246 247 249 251 253 254 256 259 261 262 261 262 262 262 261 261 260 258 257 253 249 238 230 210 193 186 191 196
217 217 221 224 228 230 232 234 233 235 243 247 250 253 255 256 255 254 255 258 259 260 260 261 262 262 262 262 261 261 261 262 261 259 252 244 232 215 203 189 187 185 204